Time,TemperatureF,DewpointF,PressureIn,WindDirection,WindDirectionDegrees,WindSpeedMPH,WindSpeedGustMPH,Humidity,HourlyPrecipIn,Conditions,Clouds,dailyrainin,SoftwareType,DateUTC
2013-05-05 00:01:00,47.8,24.7,30.13,NE,45,3.5,3.5,40,0.00,CLR,,0.00,WeatherDisplay:10.37,2013-05-05 04:01:00,
2013-05-05 00:03:00,47.7,24.5,30.14,NE,45,4.6,0.0,40,0.00,CLR,,0.00,WeatherDisplay:10.37,2013-05-05 04:03:00,
2013-05-05 00:05:00,47.7,24.5,30.14,NW,315,1.2,1.2,40,0.00,CLR,,0.00,WeatherDisplay:10.37,2013-05-05 04:05:00,
2013-05-05 00:06:00,47.7,24.5,30.14,ENE,68,3.5,3.5,40,0.00,CLR,,0.00,WeatherDisplay:10.37,2013-05-05 04:06:00,
2013-05-05 00:11:00,47.7,24.5,30.14,NW,315,6.9,6.9,40,0.00,CLR,,0.00,WeatherDisplay:10.37,2013-05-05 04:11:00,
2013-05-05 00:16:00,47.8,25.2,30.14,ENE,68,5.8,5.8,41,0.00,CLR,,0.00,WeatherDisplay:10.37,2013-05-05 04:16:00,
2013-05-05 00:20:00,47.8,25.2,30.14,North,0,5.8,5.8,41,0.00,CLR,,0.00,WeatherDisplay:10.37,2013-05-05 04:20:00,
2013-05-05 00:25:00,47.7,25.1,30.14,North,0,3.5,3.5,41,0.00,CLR,,0.00,WeatherDisplay:10.37,2013-05-05 04:25:00,
2013-05-05 00:30:00,47.7,25.1,30.13,North,0,5.8,5.8,41,0.00,CLR,,0.00,WeatherDisplay:10.37,2013-05-05 04:30:00,
2013-05-05 00:35:00,47.7,25.1,30.13,NE,45,5.8,5.8,41,0.00,CLR,,0.00,WeatherDisplay:10.37,2013-05-05 04:35:00,
2013-05-05 00:40:00,47.7,25.7,30.13,NE,45,5.8,5.8,42,0.00,CLR,,0.00,WeatherDisplay:10.37,2013-05-05 04:40:00,
2013-05-05 00:45:00,47.7,25.7,30.13,North,0,3.5,3.5,42,0.00,CLR,,0.00,WeatherDisplay:10.37,2013-05-05 04:45:00,
2013-05-05 00:50:00,47.7,25.7,30.13,NE,45,8.1,8.1,42,0.00,CLR,,0.00,WeatherDisplay:10.37,2013-05-05 04:50:00,
2013-05-05 00:55:00,47.8,25.8,30.13,East,90,8.1,8.1,42,0.00,CLR,,0.00,WeatherDisplay:10.37,2013-05-05 04:55:00,
2013-05-05 01:00:00,47.8,25.8,30.12,SE,135,3.5,3.5,42,0.00,CLR,,0.00,WeatherDisplay:10.37,2013-05-05 05:00:00,
2013-05-05 01:05:00,47.7,26.2,30.12,North,0,3.5,3.5,43,0.00,CLR,,0.00,WeatherDisplay:10.37,2013-05-05 05:05:00,
2013-05-05 01:10:00,47.5,25.5,30.12,NE,45,5.8,5.8,42,0.00,CLR,,0.00,WeatherDisplay:10.37,2013-05-05 05:10:00,
2013-05-05 01:15:00,47.5,25.5,30.12,East,90,4.6,4.6,42,0.00,CLR,,0.00,WeatherDisplay:10.37,2013-05-05 05:15:00,
2013-05-05 01:20:00,47.3,25.3,30.12,NNW,338,5.8,5.8,42,0.00,CLR,,0.00,WeatherDisplay:10.37,2013-05-05 05:20:00,
2013-05-05 01:25:00,47.3,25.3,30.12,North,0,4.6,4.6,42,0.00,CLR,,0.00,WeatherDisplay:10.37,2013-05-05 05:25:00,
2013-05-05 01:30:00,47.3,24.8,30.12,North,0,5.8,0.0,41,0.00,CLR,,0.00,WeatherDisplay:10.37,2013-05-05 05:30:00,
2013-05-05 01:35:00,47.5,25.5,30.12,NE,45,8.1,8.1,42,0.00,CLR,,0.00,WeatherDisplay:10.37,2013-05-05 05:35:00,
2013-05-05 01:40:00,47.5,25.5,30.12,North,0,4.6,4.6,42,0.00,CLR,,0.00,WeatherDisplay:10.37,2013-05-05 05:40:00,
2013-05-05 01:45:00,47.5,25.5,30.11,NNE,22,5.8,5.8,42,0.00,CLR,,0.00,WeatherDisplay:10.37,2013-05-05 05:45:00,
2013-05-05 01:50:00,47.7,25.1,30.11,ESE,112,3.5,3.5,41,0.00,CLR,,0.00,WeatherDisplay:10.37,2013-05-05 05:50:00,
2013-05-05 01:55:00,47.8,25.8,30.11,North,0,5.8,5.8,42,0.00,CLR,,0.00,WeatherDisplay:10.37,2013-05-05 05:55:00,
2013-05-05 02:00:00,47.8,25.8,30.11,North,0,6.9,6.9,42,0.00,CLR,,0.00,WeatherDisplay:10.37,2013-05-05 06:00:00,
2013-05-05 02:05:00,47.8,25.8,30.11,NE,45,5.8,5.8,42,0.00,CLR,,0.00,WeatherDisplay:10.37,2013-05-05 06:05:00,
2013-05-05 02:10:00,47.7,25.7,30.11,East,90,8.1,8.1,42,0.00,CLR,,0.00,WeatherDisplay:10.37,2013-05-05 06:10:00,
2013-05-05 02:15:00,47.5,24.9,30.11,NE,45,5.8,5.8,41,0.00,CLR,,0.00,WeatherDisplay:10.37,2013-05-05 06:15:00,
2013-05-05 02:20:00,47.5,24.9,30.11,North,0,5.8,5.8,41,0.00,CLR,,0.00,WeatherDisplay:10.37,2013-05-05 06:20:00,
2013-05-05 02:25:00,47.5,24.9,30.11,NE,45,3.5,3.5,41,0.00,CLR,,0.00,WeatherDisplay:10.37,2013-05-05 06:25:00,
2013-05-05 02:30:00,47.5,24.9,30.10,East,90,8.1,8.1,41,0.00,CLR,,0.00,WeatherDisplay:10.37,2013-05-05 06:30:00,
2013-05-05 02:35:00,47.7,25.1,30.10,SE,135,3.5,3.5,41,0.00,CLR,,0.00,WeatherDisplay:10.37,2013-05-05 06:35:00,
2013-05-05 02:40:00,47.7,25.7,30.10,North,0,5.8,5.8,42,0.00,CLR,,0.00,WeatherDisplay:10.37,2013-05-05 06:40:00,
2013-05-05 02:45:00,47.5,24.9,30.10,North,0,8.1,8.1,41,0.00,CLR,,0.00,WeatherDisplay:10.37,2013-05-05 06:45:00,
2013-05-05 02:50:00,47.5,24.3,30.10,North,0,4.6,4.6,40,0.00,CLR,,0.00,WeatherDisplay:10.37,2013-05-05 06:50:00,
2013-05-05 02:55:00,47.3,22.9,30.10,NE,45,5.8,5.8,38,0.00,CLR,,0.00,WeatherDisplay:10.37,2013-05-05 06:55:00,
2013-05-05 03:00:00,47.1,22.1,30.10,NE,45,8.1,8.1,37,0.00,CLR,,0.00,WeatherDisplay:10.37,2013-05-05 07:00:00,
2013-05-05 03:05:00,47.1,22.1,30.10,NE,45,3.5,3.5,37,0.00,CLR,,0.00,WeatherDisplay:10.37,2013-05-05 07:05:00,
2013-05-05 03:10:00,46.9,22.6,30.11,NE,45,8.1,8.1,38,0.00,CLR,,0.00,WeatherDisplay:10.37,2013-05-05 07:10:00,
2013-05-05 03:15:00,46.9,22.6,30.10,NE,45,3.5,3.5,38,0.00,CLR,,0.00,WeatherDisplay:10.37,2013-05-05 07:15:00,
2013-05-05 03:20:00,46.8,22.5,30.10,NE,45,6.9,6.9,38,0.00,CLR,,0.00,WeatherDisplay:10.37,2013-05-05 07:20:00,
2013-05-05 03:25:00,46.9,22.0,30.10,NW,315,5.8,5.8,37,0.00,CLR,,0.00,WeatherDisplay:10.37,2013-05-05 07:25:00,
2013-05-05 03:30:00,46.9,22.0,30.10,East,90,5.8,5.8,37,0.00,CLR,,0.00,WeatherDisplay:10.37,2013-05-05 07:30:00,
2013-05-05 03:35:00,47.1,22.1,30.11,South,180,6.9,6.9,37,0.00,CLR,,0.00,WeatherDisplay:10.37,2013-05-05 07:35:00,
2013-05-05 03:40:00,47.1,22.8,30.11,NE,45,8.1,8.1,38,0.00,CLR,,0.00,WeatherDisplay:10.37,2013-05-05 07:40:00,
2013-05-05 03:45:00,47.3,22.9,30.11,NW,315,8.1,8.1,38,0.00,CLR,,0.00,WeatherDisplay:10.37,2013-05-05 07:45:00,
2013-05-05 03:50:00,47.3,22.3,30.10,NE,45,5.8,5.8,37,0.00,CLR,,0.00,WeatherDisplay:10.37,2013-05-05 07:50:00,
2013-05-05 03:55:00,47.5,22.5,30.11,SE,135,8.1,8.1,37,0.00,CLR,,0.00,WeatherDisplay:10.37,2013-05-05 07:55:00,
2013-05-05 04:00:00,47.3,22.3,30.10,NNW,338,4.6,4.6,37,0.00,CLR,,0.00,WeatherDisplay:10.37,2013-05-05 08:00:00,
2013-05-05 04:05:00,47.3,21.7,30.10,NE,45,8.1,8.1,36,0.00,CLR,,0.00,WeatherDisplay:10.37,2013-05-05 08:05:00,
2013-05-05 04:10:00,47.5,22.5,30.10,NE,45,5.8,5.8,37,0.00,CLR,,0.00,WeatherDisplay:10.37,2013-05-05 08:10:00,
2013-05-05 04:15:00,47.5,22.5,30.10,NE,45,3.5,3.5,37,0.00,CLR,,0.00,WeatherDisplay:10.37,2013-05-05 08:15:00,
2013-05-05 04:20:00,47.5,21.8,30.10,NE,45,5.8,5.8,36,0.00,CLR,,0.00,WeatherDisplay:10.37,2013-05-05 08:20:00,
2013-05-05 04:25:00,47.5,21.8,30.10,North,0,5.8,5.8,36,0.00,CLR,,0.00,WeatherDisplay:10.37,2013-05-05 08:25:00,
2013-05-05 04:30:00,47.3,21.0,30.10,North,0,8.1,8.1,35,0.00,CLR,,0.00,WeatherDisplay:10.37,2013-05-05 08:30:00,
2013-05-05 04:35:00,47.1,20.2,30.10,North,0,5.8,5.8,34,0.00,CLR,,0.00,WeatherDisplay:10.37,2013-05-05 08:35:00,
2013-05-05 04:40:00,46.9,20.7,30.10,East,90,5.8,5.8,35,0.00,CLR,,0.00,WeatherDisplay:10.37,2013-05-05 08:40:00,
2013-05-05 04:45:00,46.8,20.5,30.09,NNW,338,5.8,5.8,35,0.00,CLR,,0.00,WeatherDisplay:10.37,2013-05-05 08:45:00,
2013-05-05 04:50:00,46.9,21.3,30.09,NE,45,4.6,4.6,36,0.00,CLR,,0.00,WeatherDisplay:10.37,2013-05-05 08:50:00,
2013-05-05 04:55:00,46.9,21.3,30.09,West,270,6.9,6.9,36,0.00,CLR,,0.00,WeatherDisplay:10.37,2013-05-05 08:55:00,
2013-05-05 05:00:00,46.9,22.0,30.09,East,90,8.1,8.1,37,0.00,CLR,,0.00,WeatherDisplay:10.37,2013-05-05 09:00:00,
2013-05-05 05:05:00,46.9,21.3,30.09,North,0,4.6,4.6,36,0.00,CLR,,0.00,WeatherDisplay:10.37,2013-05-05 09:05:00,
2013-05-05 05:10:00,47.1,22.1,30.10,NE,45,4.6,4.6,37,0.00,CLR,,0.00,WeatherDisplay:10.37,2013-05-05 09:10:00,
2013-05-05 05:15:00,47.3,21.7,30.10,ENE,68,4.6,4.6,36,0.00,CLR,,0.00,WeatherDisplay:10.37,2013-05-05 09:15:00,
2013-05-05 05:20:00,47.5,21.8,30.09,NE,45,4.6,4.6,36,0.00,CLR,,0.00,WeatherDisplay:10.37,2013-05-05 09:20:00,
2013-05-05 05:25:00,47.7,22.0,30.10,NE,45,8.1,8.1,36,0.00,CLR,,0.00,WeatherDisplay:10.37,2013-05-05 09:25:00,
2013-05-05 05:30:00,47.7,21.3,30.10,NW,315,5.8,5.8,35,0.00,CLR,,0.00,WeatherDisplay:10.37,2013-05-05 09:30:00,
2013-05-05 05:35:00,47.7,21.3,30.09,ENE,68,9.2,9.2,35,0.00,CLR,,0.00,WeatherDisplay:10.37,2013-05-05 09:35:00,
2013-05-05 05:40:00,47.8,21.5,30.09,North,0,10.4,10.4,35,0.00,CLR,,0.00,WeatherDisplay:10.37,2013-05-05 09:40:00,
2013-05-05 05:45:00,47.8,21.5,30.10,NE,45,4.6,4.6,35,0.00,CLR,,0.00,WeatherDisplay:10.37,2013-05-05 09:45:00,
2013-05-05 05:50:00,47.8,21.5,30.10,North,0,11.5,11.5,35,0.00,CLR,,0.00,WeatherDisplay:10.37,2013-05-05 09:50:00,
2013-05-05 05:55:00,47.8,20.8,30.09,NE,45,8.1,8.1,34,0.00,CLR,,0.00,WeatherDisplay:10.37,2013-05-05 09:55:00,
2013-05-05 06:00:00,47.8,21.5,30.09,NE,45,4.6,4.6,35,0.00,CLR,,0.00,WeatherDisplay:10.37,2013-05-05 10:00:00,
2013-05-05 06:05:00,47.8,20.8,30.09,NE,45,5.8,5.8,34,0.00,CLR,,0.00,WeatherDisplay:10.37,2013-05-05 10:05:00,
2013-05-05 06:10:00,47.8,20.8,30.09,NE,45,6.9,6.9,34,0.00,CLR,,0.00,WeatherDisplay:10.37,2013-05-05 10:10:00,
2013-05-05 06:15:00,47.8,20.8,30.10,NE,45,5.8,5.8,34,0.00,CLR,,0.00,WeatherDisplay:10.37,2013-05-05 10:15:00,
2013-05-05 06:20:00,47.8,20.8,30.10,SE,135,6.9,6.9,34,0.00,CLR,,0.00,WeatherDisplay:10.37,2013-05-05 10:20:00,
2013-05-05 06:25:00,47.8,21.5,30.10,North,0,6.9,6.9,35,0.00,CLR,,0.00,WeatherDisplay:10.37,2013-05-05 10:25:00,
2013-05-05 06:30:00,47.8,21.5,30.11,SE,135,8.1,8.1,35,0.00,CLR,,0.00,WeatherDisplay:10.37,2013-05-05 10:30:00,
2013-05-05 06:35:00,47.8,21.5,30.11,NW,315,8.1,8.1,35,0.00,CLR,,0.00,WeatherDisplay:10.37,2013-05-05 10:35:00,
2013-05-05 06:40:00,48.0,21.6,30.11,North,0,5.8,5.8,35,0.00,CLR,,0.00,WeatherDisplay:10.37,2013-05-05 10:40:00,
2013-05-05 06:45:00,48.0,23.0,30.11,SE,135,5.8,5.8,37,0.00,CLR,,0.00,WeatherDisplay:10.37,2013-05-05 10:45:00,
2013-05-05 06:50:00,48.0,22.3,30.11,North,0,5.8,5.8,36,0.00,CLR,,0.00,WeatherDisplay:10.37,2013-05-05 10:50:00,
2013-05-05 06:55:00,48.0,22.3,30.11,NE,45,5.8,5.8,36,0.00,CLR,,0.00,WeatherDisplay:10.37,2013-05-05 10:55:00,
2013-05-05 07:00:00,48.0,21.6,30.11,ENE,68,6.9,6.9,35,0.00,CLR,,0.00,WeatherDisplay:10.37,2013-05-05 11:00:00,
2013-05-05 07:05:00,48.0,22.3,30.11,South,180,5.8,5.8,36,0.00,CLR,,0.00,WeatherDisplay:10.37,2013-05-05 11:05:00,
2013-05-05 07:10:00,48.0,22.3,30.11,North,0,6.9,6.9,36,0.00,CLR,,0.00,WeatherDisplay:10.37,2013-05-05 11:10:00,
2013-05-05 07:15:00,48.2,22.5,30.12,WNW,292,6.9,6.9,36,0.00,CLR,,0.00,WeatherDisplay:10.37,2013-05-05 11:15:00,
2013-05-05 07:20:00,48.0,21.6,30.12,NE,45,8.1,8.1,35,0.00,CLR,,0.00,WeatherDisplay:10.37,2013-05-05 11:20:00,
2013-05-05 07:25:00,48.0,22.3,30.12,NE,45,5.8,5.8,36,0.00,CLR,,0.00,WeatherDisplay:10.37,2013-05-05 11:25:00,
2013-05-05 07:30:00,48.2,22.5,30.12,NE,45,6.9,6.9,36,0.00,CLR,,0.00,WeatherDisplay:10.37,2013-05-05 11:30:00,
2013-05-05 07:35:00,48.2,21.8,30.13,NNE,22,8.1,8.1,35,0.00,CLR,,0.00,WeatherDisplay:10.37,2013-05-05 11:35:00,
2013-05-05 07:40:00,48.2,21.8,30.12,NE,45,8.1,8.1,35,0.00,CLR,,0.00,WeatherDisplay:10.37,2013-05-05 11:40:00,
2013-05-05 07:45:00,48.4,22.6,30.12,SE,135,8.1,8.1,36,0.00,CLR,,0.00,WeatherDisplay:10.37,2013-05-05 11:45:00,
2013-05-05 07:50:00,48.4,21.3,30.12,NE,45,8.1,8.1,34,0.00,CLR,,0.00,WeatherDisplay:10.37,2013-05-05 11:50:00,
2013-05-05 07:55:00,48.4,21.3,30.12,North,0,8.1,8.1,34,0.00,CLR,,0.00,WeatherDisplay:10.37,2013-05-05 11:55:00,
2013-05-05 08:00:00,48.6,21.4,30.12,East,90,8.1,8.1,34,0.00,CLR,,0.00,WeatherDisplay:10.37,2013-05-05 12:00:00,
2013-05-05 08:05:00,48.6,20.7,30.13,NE,50,3.0,7.0,33,0.00,CLR,,0.00,WeatherDisplay:10.37,2013-05-05 12:05:00,
2013-05-05 08:10:00,48.7,21.6,30.13,East,90,9.2,9.2,34,0.00,CLR,,0.00,WeatherDisplay:10.37,2013-05-05 12:10:00,
2013-05-05 08:15:00,48.7,21.6,30.13,West,270,6.9,6.9,34,0.00,CLR,,0.00,WeatherDisplay:10.37,2013-05-05 12:15:00,
2013-05-05 08:20:00,48.9,21.7,30.13,NNE,13,2.0,6.0,34,0.00,CLR,,0.00,WeatherDisplay:10.37,2013-05-05 12:20:00,
2013-05-05 08:25:00,49.1,21.9,30.13,NE,45,4.6,4.6,34,0.00,CLR,,0.00,WeatherDisplay:10.37,2013-05-05 12:25:00,
2013-05-05 08:30:00,49.1,21.9,30.13,NNE,19,2.0,8.0,34,0.00,CLR,,0.00,WeatherDisplay:10.37,2013-05-05 12:30:00,
2013-05-05 08:35:00,49.1,21.2,30.13,NE,36,3.0,7.0,33,0.00,CLR,,0.00,WeatherDisplay:10.37,2013-05-05 12:35:00,
2013-05-05 08:40:00,48.9,21.7,30.14,ENE,59,2.0,8.0,34,0.00,CLR,,0.00,WeatherDisplay:10.37,2013-05-05 12:40:00,
2013-05-05 08:45:00,48.9,21.7,30.14,ENE,61,5.0,8.0,34,0.00,CLR,,0.00,WeatherDisplay:10.37,2013-05-05 12:45:00,
2013-05-05 08:50:00,49.1,21.9,30.14,ENE,59,2.0,8.0,34,0.00,CLR,,0.00,WeatherDisplay:10.37,2013-05-05 12:50:00,
2013-05-05 08:55:00,48.9,21.0,30.14,ENE,75,2.0,9.0,33,0.00,CLR,,0.00,WeatherDisplay:10.37,2013-05-05 12:55:00,
2013-05-05 09:00:00,48.9,21.7,30.15,NE,52,2.0,9.0,34,0.00,CLR,,0.00,WeatherDisplay:10.37,2013-05-05 13:00:00,
2013-05-05 09:05:00,48.9,21.7,30.14,NE,39,2.0,8.0,34,0.00,CLR,,0.00,WeatherDisplay:10.37,2013-05-05 13:05:00,
2013-05-05 09:10:00,48.9,21.7,30.15,NE,45,3.0,10.0,34,0.00,CLR,,0.00,WeatherDisplay:10.37,2013-05-05 13:10:00,
2013-05-05 09:15:00,49.1,21.2,30.15,NE,41,5.0,15.0,33,0.00,CLR,,0.00,WeatherDisplay:10.37,2013-05-05 13:15:00,
2013-05-05 09:20:00,49.1,20.5,30.15,ENE,63,3.0,7.0,32,0.00,CLR,,0.00,WeatherDisplay:10.37,2013-05-05 13:20:00,
2013-05-05 09:25:00,49.2,20.5,30.15,ENE,76,1.0,8.0,32,0.00,CLR,,0.00,WeatherDisplay:10.37,2013-05-05 13:25:00,
2013-05-05 09:30:00,49.5,20.8,30.15,ENE,63,2.0,9.0,32,0.00,CLR,,0.00,WeatherDisplay:10.37,2013-05-05 13:30:00,
2013-05-05 09:35:00,49.6,20.9,30.15,NE,37,3.0,8.0,32,0.00,CLR,,0.00,WeatherDisplay:10.37,2013-05-05 13:35:00,
2013-05-05 09:40:00,49.4,20.8,30.15,ENE,63,2.0,10.0,32,0.00,CLR,,0.00,WeatherDisplay:10.37,2013-05-05 13:40:00,
2013-05-05 09:45:00,49.5,22.2,30.15,ENE,62,2.0,8.0,34,0.00,CLR,,0.00,WeatherDisplay:10.37,2013-05-05 13:45:00,
2013-05-05 09:50:00,49.5,22.2,30.15,NE,39,3.0,8.0,34,0.00,CLR,,0.00,WeatherDisplay:10.37,2013-05-05 13:50:00,
2013-05-05 09:55:00,49.6,22.4,30.15,NE,56,1.0,7.0,34,0.00,CLR,,0.00,WeatherDisplay:10.37,2013-05-05 13:55:00,
2013-05-05 10:00:00,50.2,22.9,30.15,ENE,70,2.0,6.0,34,0.00,CLR,,0.00,WeatherDisplay:10.37,2013-05-05 14:00:00,
2013-05-05 10:05:00,50.4,22.3,30.15,NE,55,2.0,6.0,33,0.00,CLR,,0.00,WeatherDisplay:10.37,2013-05-05 14:05:00,
2013-05-05 10:10:00,50.6,21.8,30.14,NNE,33,3.0,9.0,32,0.00,CLR,,0.00,WeatherDisplay:10.37,2013-05-05 14:10:00,
2013-05-05 10:15:00,50.9,20.5,30.14,NNE,25,3.0,8.0,30,0.00,CLR,,0.00,WeatherDisplay:10.37,2013-05-05 14:15:00,
2013-05-05 10:20:00,51.3,20.8,30.14,NNE,28,2.0,6.0,30,0.00,CLR,,0.00,WeatherDisplay:10.37,2013-05-05 14:20:00,
2013-05-05 10:25:00,51.3,20.0,30.14,NE,56,3.0,8.0,29,0.00,CLR,,0.00,WeatherDisplay:10.37,2013-05-05 14:25:00,
2013-05-05 10:30:00,50.8,21.2,30.14,ENE,75,2.0,8.0,31,0.00,CLR,,0.00,WeatherDisplay:10.37,2013-05-05 14:30:00,
2013-05-05 10:35:00,50.9,21.3,30.15,East,88,3.0,8.0,31,0.00,CLR,,0.00,WeatherDisplay:10.37,2013-05-05 14:35:00,
2013-05-05 10:40:00,50.5,21.7,30.14,East,99,2.0,8.0,32,0.00,CLR,,0.00,WeatherDisplay:10.37,2013-05-05 14:40:00,
2013-05-05 10:45:00,50.4,22.3,30.15,East,88,3.0,8.0,33,0.00,CLR,,0.00,WeatherDisplay:10.37,2013-05-05 14:45:00,
2013-05-05 10:50:00,50.3,22.9,30.15,ENE,78,1.0,6.0,34,0.00,CLR,,0.00,WeatherDisplay:10.37,2013-05-05 14:50:00,
2013-05-05 10:55:00,50.7,22.6,30.15,ENE,62,3.0,10.0,33,0.00,CLR,,0.00,WeatherDisplay:10.37,2013-05-05 14:55:00,
2013-05-05 11:00:00,50.9,22.8,30.15,NE,55,2.0,10.0,33,0.00,CLR,,0.00,WeatherDisplay:10.37,2013-05-05 15:00:00,
2013-05-05 11:05:00,51.3,21.6,30.15,NE,43,3.0,8.0,31,0.00,CLR,,0.00,WeatherDisplay:10.37,2013-05-05 15:05:00,
2013-05-05 11:10:00,51.7,20.4,30.15,NE,44,2.0,8.0,29,0.00,CLR,,0.00,WeatherDisplay:10.37,2013-05-05 15:10:00,
2013-05-05 11:15:00,52.2,19.1,30.15,NE,34,5.0,11.0,27,0.00,CLR,,0.00,WeatherDisplay:10.37,2013-05-05 15:15:00,
2013-05-05 11:20:00,52.5,19.5,30.15,NNE,22,2.0,10.0,27,0.00,CLR,,0.00,WeatherDisplay:10.37,2013-05-05 15:20:00,
2013-05-05 11:25:00,52.5,19.5,30.15,NE,36,2.0,8.0,27,0.00,CLR,,0.00,WeatherDisplay:10.37,2013-05-05 15:25:00,
2013-05-05 11:30:00,52.7,19.6,30.14,NE,37,3.0,8.0,27,0.00,CLR,,0.00,WeatherDisplay:10.37,2013-05-05 15:30:00,
2013-05-05 11:35:00,52.5,19.5,30.14,NE,40,2.0,8.0,27,0.00,CLR,,0.00,WeatherDisplay:10.37,2013-05-05 15:35:00,
2013-05-05 11:40:00,52.9,19.8,30.14,NNE,23,2.0,8.0,27,0.00,CLR,,0.00,WeatherDisplay:10.37,2013-05-05 15:40:00,
2013-05-05 11:45:00,52.7,19.6,30.14,NNE,33,2.0,8.0,27,0.00,CLR,,0.00,WeatherDisplay:10.37,2013-05-05 15:45:00,
2013-05-05 11:50:00,52.9,19.7,30.14,NNE,29,2.0,10.0,27,0.00,CLR,,0.00,WeatherDisplay:10.37,2013-05-05 15:50:00,
2013-05-05 11:55:00,54.7,20.4,30.14,NNE,18,3.0,8.0,26,0.00,CLR,,0.00,WeatherDisplay:10.37,2013-05-05 15:55:00,
2013-05-05 12:00:00,56.8,19.4,30.13,NNE,23,3.0,9.0,23,0.00,CLR,,0.00,WeatherDisplay:10.37,2013-05-05 16:00:00,
2013-05-05 12:05:00,57.5,17.8,30.13,NE,41,3.0,8.0,21,0.00,CLR,,0.00,WeatherDisplay:10.37,2013-05-05 16:05:00,
2013-05-05 12:10:00,57.4,16.6,30.14,North,5,2.0,13.0,20,0.00,CLR,,0.00,WeatherDisplay:10.37,2013-05-05 16:10:00,
2013-05-05 12:15:00,57.5,16.7,30.13,North,3,3.0,10.0,20,0.00,CLR,,0.00,WeatherDisplay:10.37,2013-05-05 16:15:00,
2013-05-05 12:20:00,57.0,15.1,30.13,NNE,19,5.0,9.0,19,0.00,CLR,,0.00,WeatherDisplay:10.37,2013-05-05 16:20:00,
2013-05-05 12:25:00,56.5,17.0,30.13,NE,40,3.0,8.0,21,0.00,CLR,,0.00,WeatherDisplay:10.37,2013-05-05 16:25:00,
2013-05-05 12:30:00,56.5,17.0,30.13,NNE,26,3.0,11.0,21,0.00,CLR,,0.00,WeatherDisplay:10.37,2013-05-05 16:30:00,
2013-05-05 12:35:00,58.2,17.3,30.13,NNE,24,2.0,6.0,20,0.00,CLR,,0.00,WeatherDisplay:10.37,2013-05-05 16:35:00,
2013-05-05 12:40:00,57.9,15.8,30.13,NNE,17,3.0,8.0,19,0.00,CLR,,0.00,WeatherDisplay:10.37,2013-05-05 16:40:00,
2013-05-05 12:45:00,58.3,16.1,30.13,NE,41,1.0,9.0,19,0.00,CLR,,0.00,WeatherDisplay:10.37,2013-05-05 16:45:00,
2013-05-05 12:50:00,57.3,16.5,30.13,NE,50,5.0,9.0,20,0.00,CLR,,0.00,WeatherDisplay:10.37,2013-05-05 16:50:00,
2013-05-05 12:55:00,57.4,19.8,30.12,NE,51,3.0,9.0,23,0.00,CLR,,0.00,WeatherDisplay:10.37,2013-05-05 16:55:00,
2013-05-05 13:00:00,57.9,15.8,30.13,East,88,3.0,8.0,19,0.00,CLR,,0.00,WeatherDisplay:10.37,2013-05-05 17:00:00,
2013-05-05 13:05:00,58.1,17.2,30.13,ENE,67,3.0,8.0,20,0.00,CLR,,0.00,WeatherDisplay:10.37,2013-05-05 17:05:00,
2013-05-05 13:10:00,58.6,16.4,30.13,NE,51,3.0,10.0,19,0.00,CLR,,0.00,WeatherDisplay:10.37,2013-05-05 17:10:00,
2013-05-05 13:15:00,57.8,15.7,30.13,NE,46,5.0,8.0,19,0.00,CLR,,0.00,WeatherDisplay:10.37,2013-05-05 17:15:00,
2013-05-05 13:20:00,58.1,19.4,30.12,NNE,31,2.0,8.0,22,0.00,CLR,,0.00,WeatherDisplay:10.37,2013-05-05 17:20:00,
2013-05-05 13:25:00,57.4,17.7,30.12,NNE,23,2.0,9.0,21,0.00,CLR,,0.00,WeatherDisplay:10.37,2013-05-05 17:25:00,
2013-05-05 13:30:00,57.7,18.0,30.12,ENE,61,5.0,8.0,21,0.00,CLR,,0.00,WeatherDisplay:10.37,2013-05-05 17:30:00,
2013-05-05 13:35:00,57.4,17.7,30.12,NNE,29,2.0,12.0,21,0.00,CLR,,0.00,WeatherDisplay:10.37,2013-05-05 17:35:00,
2013-05-05 13:40:00,58.6,17.6,30.12,NNE,17,3.0,6.0,20,0.00,CLR,,0.00,WeatherDisplay:10.37,2013-05-05 17:40:00,
2013-05-05 13:45:00,58.3,16.1,30.12,NNE,17,2.0,8.0,19,0.00,CLR,,0.00,WeatherDisplay:10.37,2013-05-05 17:45:00,
2013-05-05 13:50:00,58.0,15.9,30.12,NNE,21,2.0,8.0,19,0.00,CLR,,0.00,WeatherDisplay:10.37,2013-05-05 17:50:00,
2013-05-05 13:55:00,59.2,14.4,30.12,NNW,346,3.0,10.0,17,0.00,CLR,,0.00,WeatherDisplay:10.37,2013-05-05 17:55:00,
2013-05-05 14:00:00,59.2,13.0,30.12,NNW,333,2.0,9.0,16,0.00,CLR,,0.00,WeatherDisplay:10.37,2013-05-05 18:00:00,
2013-05-05 14:05:00,57.9,13.3,30.12,NNE,26,3.0,12.0,17,0.00,CLR,,0.00,WeatherDisplay:10.37,2013-05-05 18:05:00,
2013-05-05 14:10:00,58.3,17.3,30.12,NNE,30,2.0,8.0,20,0.00,CLR,,0.00,WeatherDisplay:10.37,2013-05-05 18:10:00,
2013-05-05 14:15:00,59.3,17.0,30.12,NNW,327,3.0,8.0,19,0.00,CLR,,0.00,WeatherDisplay:10.37,2013-05-05 18:15:00,
2013-05-05 14:20:00,58.3,17.4,30.12,NNE,23,5.0,11.0,20,0.00,CLR,,0.00,WeatherDisplay:10.37,2013-05-05 18:20:00,
2013-05-05 14:25:00,57.7,18.0,30.12,NE,37,2.0,9.0,21,0.00,CLR,,0.00,WeatherDisplay:10.37,2013-05-05 18:25:00,
2013-05-05 14:30:00,57.2,19.7,30.12,NE,53,6.0,12.0,23,0.00,CLR,,0.00,WeatherDisplay:10.37,2013-05-05 18:30:00,
2013-05-05 14:35:00,56.9,21.4,30.12,NE,50,2.0,9.0,25,0.00,CLR,,0.00,WeatherDisplay:10.37,2013-05-05 18:35:00,
2013-05-05 14:40:00,57.0,21.5,30.12,NE,46,6.0,9.0,25,0.00,CLR,,0.00,WeatherDisplay:10.37,2013-05-05 18:40:00,
2013-05-05 14:45:00,57.3,21.7,30.12,ENE,77,2.0,8.0,25,0.00,CLR,,0.00,WeatherDisplay:10.37,2013-05-05 18:45:00,
2013-05-05 14:50:00,57.8,21.2,30.12,NE,37,3.0,7.0,24,0.00,CLR,,0.00,WeatherDisplay:10.37,2013-05-05 18:50:00,
2013-05-05 14:55:00,57.9,19.3,30.12,NNE,30,6.0,12.0,22,0.00,CLR,,0.00,WeatherDisplay:10.37,2013-05-05 18:55:00,
2013-05-05 15:00:00,56.7,22.1,30.12,NE,52,3.0,11.0,26,0.00,CLR,,0.00,WeatherDisplay:10.37,2013-05-05 19:00:00,
2013-05-05 15:05:00,57.0,21.4,30.12,NE,46,5.0,12.0,25,0.00,CLR,,0.00,WeatherDisplay:10.37,2013-05-05 19:05:00,
2013-05-05 15:10:00,55.9,20.5,30.12,NE,36,6.0,13.0,25,0.00,CLR,,0.00,WeatherDisplay:10.37,2013-05-05 19:10:00,
2013-05-05 15:15:00,55.6,23.8,30.12,NE,39,3.0,10.0,29,0.00,CLR,,0.00,WeatherDisplay:10.37,2013-05-05 19:15:00,
2013-05-05 15:20:00,56.4,22.8,30.12,NE,46,2.0,8.0,27,0.00,CLR,,0.00,WeatherDisplay:10.37,2013-05-05 19:20:00,
2013-05-05 15:25:00,56.5,20.1,30.12,NNE,32,6.0,12.0,24,0.00,CLR,,0.00,WeatherDisplay:10.37,2013-05-05 19:25:00,
2013-05-05 15:30:00,56.6,17.0,30.12,North,350,3.0,8.0,21,0.00,CLR,,0.00,WeatherDisplay:10.37,2013-05-05 19:30:00,
2013-05-05 15:35:00,56.7,17.1,30.11,NE,39,2.0,11.0,21,0.00,CLR,,0.00,WeatherDisplay:10.37,2013-05-05 19:35:00,
2013-05-05 15:40:00,57.0,16.3,30.11,NNE,26,2.0,8.0,20,0.00,CLR,,0.00,WeatherDisplay:10.37,2013-05-05 19:40:00,
2013-05-05 15:45:00,57.1,17.4,30.11,NNE,31,2.0,9.0,21,0.00,CLR,,0.00,WeatherDisplay:10.37,2013-05-05 19:45:00,
2013-05-05 15:50:00,57.6,17.9,30.11,North,354,3.0,8.0,21,0.00,CLR,,0.00,WeatherDisplay:10.37,2013-05-05 19:50:00,
2013-05-05 15:55:00,57.5,17.8,30.11,NW,326,3.0,9.0,21,0.00,CLR,,0.00,WeatherDisplay:10.37,2013-05-05 19:55:00,
2013-05-05 16:00:00,57.3,18.7,30.11,WNW,298,3.0,8.0,22,0.00,CLR,,0.00,WeatherDisplay:10.37,2013-05-05 20:00:00,
2013-05-05 16:05:00,57.2,19.7,30.11,North,352,2.0,9.0,23,0.00,CLR,,0.00,WeatherDisplay:10.37,2013-05-05 20:05:00,
2013-05-05 16:10:00,57.7,19.1,30.11,NNE,19,1.0,9.0,22,0.00,CLR,,0.00,WeatherDisplay:10.37,2013-05-05 20:10:00,
2013-05-05 16:15:00,57.6,19.0,30.11,NNE,12,3.0,9.0,22,0.00,CLR,,0.00,WeatherDisplay:10.37,2013-05-05 20:15:00,
2013-05-05 16:20:00,56.7,18.2,30.11,North,354,3.0,9.0,22,0.00,CLR,,0.00,WeatherDisplay:10.37,2013-05-05 20:20:00,
2013-05-05 16:25:00,55.5,19.3,30.11,NNW,345,2.0,8.0,24,0.00,CLR,,0.00,WeatherDisplay:10.37,2013-05-05 20:25:00,
2013-05-05 16:30:00,54.9,19.7,30.10,North,5,3.0,12.0,25,0.00,CLR,,0.00,WeatherDisplay:10.37,2013-05-05 20:30:00,
2013-05-05 16:35:00,54.3,21.0,30.10,NNW,346,2.0,7.0,27,0.00,CLR,,0.00,WeatherDisplay:10.37,2013-05-05 20:35:00,
2013-05-05 16:40:00,54.0,21.6,30.10,North,350,3.0,10.0,28,0.00,CLR,,0.00,WeatherDisplay:10.37,2013-05-05 20:40:00,
2013-05-05 16:45:00,53.8,21.4,30.10,North,352,2.0,10.0,28,0.00,CLR,,0.00,WeatherDisplay:10.37,2013-05-05 20:45:00,
2013-05-05 16:50:00,53.8,21.4,30.09,North,2,3.0,9.0,28,0.00,CLR,,0.00,WeatherDisplay:10.37,2013-05-05 20:50:00,
2013-05-05 16:55:00,53.6,21.2,30.09,NE,45,2.0,9.0,28,0.00,CLR,,0.00,WeatherDisplay:10.37,2013-05-05 20:55:00,
2013-05-05 17:00:00,53.4,22.7,30.09,ENE,57,2.0,6.0,30,0.00,CLR,,0.00,WeatherDisplay:10.37,2013-05-05 21:00:00,
2013-05-05 17:05:00,53.2,22.6,30.09,NE,46,2.0,8.0,30,0.00,CLR,,0.00,WeatherDisplay:10.37,2013-05-05 21:05:00,
2013-05-05 17:10:00,53.4,21.9,30.09,NNE,33,5.0,9.0,29,0.00,CLR,,0.00,WeatherDisplay:10.37,2013-05-05 21:10:00,
2013-05-05 17:15:00,53.1,22.4,30.09,NNE,29,1.0,9.0,30,0.00,CLR,,0.00,WeatherDisplay:10.37,2013-05-05 21:15:00,
2013-05-05 17:20:00,52.9,23.0,30.09,ENE,68,1.0,7.0,31,0.00,CLR,,0.00,WeatherDisplay:10.37,2013-05-05 21:20:00,
2013-05-05 17:25:00,53.1,23.2,30.09,ESE,111,2.0,6.0,31,0.00,CLR,,0.00,WeatherDisplay:10.37,2013-05-05 21:25:00,
2013-05-05 17:30:00,53.1,21.6,30.09,SSE,155,1.0,8.0,29,0.00,CLR,,0.00,WeatherDisplay:10.37,2013-05-05 21:30:00,
2013-05-05 17:35:00,53.0,22.4,30.09,SSE,148,1.0,6.0,30,0.00,CLR,,0.00,WeatherDisplay:10.37,2013-05-05 21:35:00,
2013-05-05 17:40:00,52.6,21.2,30.09,NE,39,5.0,11.0,29,0.00,CLR,,0.00,WeatherDisplay:10.37,2013-05-05 21:40:00,
2013-05-05 17:45:00,52.3,22.6,30.09,NNE,15,2.0,9.0,31,0.00,CLR,,0.00,WeatherDisplay:10.37,2013-05-05 21:45:00,
2013-05-05 17:50:00,52.3,22.6,30.09,North,350,2.0,6.0,31,0.00,CLR,,0.00,WeatherDisplay:10.37,2013-05-05 21:50:00,
2013-05-05 17:55:00,52.3,24.0,30.09,NNW,342,1.0,10.0,33,0.00,CLR,,0.00,WeatherDisplay:10.37,2013-05-05 21:55:00,
2013-05-05 18:00:00,52.5,24.9,30.09,NNE,16,2.0,7.0,34,0.00,CLR,,0.00,WeatherDisplay:10.37,2013-05-05 22:00:00,
2013-05-05 18:05:00,52.0,25.2,30.09,NNE,17,3.0,10.0,35,0.00,CLR,,0.00,WeatherDisplay:10.37,2013-05-05 22:05:00,
2013-05-05 18:10:00,51.8,25.7,30.09,NE,36,2.0,6.0,36,0.00,CLR,,0.00,WeatherDisplay:10.37,2013-05-05 22:10:00,
2013-05-05 18:15:00,51.4,25.3,30.09,NE,54,1.0,7.0,36,0.00,CLR,,0.00,WeatherDisplay:10.37,2013-05-05 22:15:00,
2013-05-05 18:20:00,51.4,26.6,30.09,NNE,30,1.0,6.0,38,0.00,CLR,,0.00,WeatherDisplay:10.37,2013-05-05 22:20:00,
2013-05-05 18:25:00,51.4,26.0,30.09,NNW,346,1.0,7.0,37,0.00,CLR,,0.00,WeatherDisplay:10.37,2013-05-05 22:25:00,
2013-05-05 18:30:00,51.3,26.5,30.09,NNE,26,2.0,7.0,38,0.00,CLR,,0.00,WeatherDisplay:10.37,2013-05-05 22:30:00,
2013-05-05 18:35:00,51.1,25.7,30.09,ENE,60,1.0,6.0,37,0.00,CLR,,0.00,WeatherDisplay:10.37,2013-05-05 22:35:00,
2013-05-05 18:40:00,50.9,25.5,30.09,East,82,1.0,5.0,37,0.00,CLR,,0.00,WeatherDisplay:10.37,2013-05-05 22:40:00,
2013-05-05 18:45:00,50.8,25.5,30.09,NNE,31,1.0,7.0,37,0.00,CLR,,0.00,WeatherDisplay:10.37,2013-05-05 22:45:00,
2013-05-05 18:50:00,50.7,26.0,30.09,SE,144,3.0,7.0,38,0.00,CLR,,0.00,WeatherDisplay:10.37,2013-05-05 22:50:00,
2013-05-05 18:55:00,50.5,25.8,30.08,SSW,198,2.0,7.0,38,0.00,CLR,,0.00,WeatherDisplay:10.37,2013-05-05 22:55:00,
2013-05-05 19:00:00,50.5,25.8,30.09,SSW,209,0.0,5.0,38,0.00,CLR,,0.00,WeatherDisplay:10.37,2013-05-05 23:00:00,
2013-05-05 19:05:00,50.3,26.2,30.09,NE,45,1.0,5.0,39,0.00,CLR,,0.00,WeatherDisplay:10.37,2013-05-05 23:05:00,
2013-05-05 19:10:00,50.0,26.0,30.09,NE,45,4.6,4.6,39,0.00,CLR,,0.00,WeatherDisplay:10.37,2013-05-05 23:10:00,
2013-05-05 19:15:00,49.8,26.4,30.09,NW,315,3.5,3.5,40,0.00,CLR,,0.00,WeatherDisplay:10.37,2013-05-05 23:15:00,
2013-05-05 19:20:00,49.8,26.4,30.09,West,270,2.3,0.0,40,0.00,CLR,,0.00,WeatherDisplay:10.37,2013-05-05 23:20:00,
2013-05-05 19:25:00,49.6,26.9,30.09,North,0,3.5,3.5,41,0.00,CLR,,0.00,WeatherDisplay:10.37,2013-05-05 23:25:00,
2013-05-05 19:30:00,49.5,26.7,30.09,West,270,2.3,2.3,41,0.00,CLR,,0.00,WeatherDisplay:10.37,2013-05-05 23:30:00,
2013-05-05 19:35:00,49.3,26.5,30.09,North,0,3.5,0.0,41,0.00,CLR,,0.00,WeatherDisplay:10.37,2013-05-05 23:35:00,
2013-05-05 19:40:00,49.1,27.0,30.09,North,0,4.6,4.6,42,0.00,CLR,,0.00,WeatherDisplay:10.37,2013-05-05 23:40:00,
2013-05-05 19:45:00,48.9,26.8,30.09,NE,45,3.5,0.0,42,0.00,CLR,,0.00,WeatherDisplay:10.37,2013-05-05 23:45:00,
2013-05-05 19:50:00,48.7,26.6,30.09,SE,135,3.5,3.5,42,0.00,CLR,,0.00,WeatherDisplay:10.37,2013-05-05 23:50:00,
2013-05-05 19:55:00,48.6,26.5,30.10,West,270,3.5,0.0,42,0.00,CLR,,0.00,WeatherDisplay:10.37,2013-05-05 23:55:00,
2013-05-05 20:00:00,48.4,26.9,30.10,NE,45,1.2,0.0,43,0.00,CLR,,0.00,WeatherDisplay:10.37,2013-05-06 00:00:00,
2013-05-05 20:05:00,48.2,27.3,30.09,NE,45,2.3,2.3,44,0.00,CLR,,0.00,WeatherDisplay:10.37,2013-05-06 00:05:00,
2013-05-05 20:10:00,48.0,27.1,30.10,SE,135,4.6,4.6,44,0.00,CLR,,0.00,WeatherDisplay:10.37,2013-05-06 00:10:00,
2013-05-05 20:15:00,48.0,28.2,30.10,North,0,4.6,4.6,46,0.00,CLR,,0.00,WeatherDisplay:10.37,2013-05-06 00:15:00,
2013-05-05 20:20:00,48.0,28.2,30.09,NE,45,3.5,3.5,46,0.00,CLR,,0.00,WeatherDisplay:10.37,2013-05-06 00:20:00,
2013-05-05 20:25:00,47.8,28.0,30.10,NE,45,3.5,3.5,46,0.00,CLR,,0.00,WeatherDisplay:10.37,2013-05-06 00:25:00,
2013-05-05 20:30:00,47.7,27.9,30.09,NE,45,1.2,0.0,46,0.00,CLR,,0.00,WeatherDisplay:10.37,2013-05-06 00:30:00,
2013-05-05 20:35:00,47.5,27.7,30.10,NE,45,3.5,0.0,46,0.00,CLR,,0.00,WeatherDisplay:10.37,2013-05-06 00:35:00,
2013-05-05 20:40:00,47.5,27.7,30.09,SE,135,3.5,3.5,46,0.00,CLR,,0.00,WeatherDisplay:10.37,2013-05-06 00:40:00,
2013-05-05 20:45:00,47.5,28.2,30.09,NE,45,4.6,4.6,47,0.00,CLR,,0.00,WeatherDisplay:10.37,2013-05-06 00:45:00,
2013-05-05 20:50:00,47.5,28.2,30.10,NE,45,4.6,4.6,47,0.00,CLR,,0.00,WeatherDisplay:10.37,2013-05-06 00:50:00,
2013-05-05 20:55:00,47.3,28.1,30.09,ENE,68,2.3,0.0,47,0.00,CLR,,0.00,WeatherDisplay:10.37,2013-05-06 00:55:00,
2013-05-05 21:00:00,47.3,28.1,30.10,SW,225,2.3,0.0,47,0.00,CLR,,0.00,WeatherDisplay:10.37,2013-05-06 01:00:00,
2013-05-05 21:05:00,47.3,28.1,30.10,NW,315,3.5,3.5,47,0.00,CLR,,0.00,WeatherDisplay:10.37,2013-05-06 01:05:00,
2013-05-05 21:10:00,47.5,28.7,30.10,NE,45,2.3,2.3,48,0.00,CLR,,0.00,WeatherDisplay:10.37,2013-05-06 01:10:00,
2013-05-05 21:15:00,47.5,28.7,30.10,South,180,5.8,5.8,48,0.00,CLR,,0.00,WeatherDisplay:10.37,2013-05-06 01:15:00,
2013-05-05 21:20:00,47.5,28.7,30.10,East,90,1.2,0.0,48,0.00,CLR,,0.00,WeatherDisplay:10.37,2013-05-06 01:20:00,
2013-05-05 21:25:00,47.5,29.3,30.10,North,0,5.8,5.8,49,0.00,CLR,,0.00,WeatherDisplay:10.37,2013-05-06 01:25:00,
2013-05-05 21:30:00,47.5,29.3,30.10,NW,315,3.5,0.0,49,0.00,CLR,,0.00,WeatherDisplay:10.37,2013-05-06 01:30:00,
2013-05-05 21:35:00,47.5,29.7,30.09,SE,135,4.6,4.6,50,0.00,CLR,,0.00,WeatherDisplay:10.37,2013-05-06 01:35:00,
2013-05-05 21:40:00,47.5,29.7,30.09,NE,45,4.6,4.6,50,0.00,CLR,,0.00,WeatherDisplay:10.37,2013-05-06 01:40:00,
2013-05-05 21:45:00,47.3,29.6,30.10,SW,225,5.8,5.8,50,0.00,CLR,,0.00,WeatherDisplay:10.37,2013-05-06 01:45:00,
2013-05-05 21:50:00,47.3,30.1,30.10,East,90,4.6,0.0,51,0.00,CLR,,0.00,WeatherDisplay:10.37,2013-05-06 01:50:00,
2013-05-05 21:55:00,47.3,30.1,30.10,NE,45,2.3,2.3,51,0.00,CLR,,0.00,WeatherDisplay:10.37,2013-05-06 01:55:00,
2013-05-05 22:00:00,47.3,30.5,30.10,NE,45,3.5,0.0,52,0.00,CLR,,0.00,WeatherDisplay:10.37,2013-05-06 02:00:00,
2013-05-05 22:05:00,47.3,30.5,30.11,NE,45,2.3,2.3,52,0.00,CLR,,0.00,WeatherDisplay:10.37,2013-05-06 02:05:00,
2013-05-05 22:10:00,47.3,30.5,30.11,SE,135,0.0,0.0,52,0.00,CLR,,0.00,WeatherDisplay:10.37,2013-05-06 02:10:00,
2013-05-05 22:15:00,47.3,30.5,30.11,NE,45,2.3,2.3,52,0.00,CLR,,0.00,WeatherDisplay:10.37,2013-05-06 02:15:00,
2013-05-05 22:20:00,47.7,31.4,30.10,NNW,338,3.5,3.5,53,0.00,CLR,,0.00,WeatherDisplay:10.37,2013-05-06 02:20:00,
2013-05-05 22:25:00,48.0,31.7,30.11,NE,45,6.9,0.0,53,0.00,CLR,,0.00,WeatherDisplay:10.37,2013-05-06 02:25:00,
2013-05-05 22:30:00,48.2,31.9,30.11,NE,45,5.8,0.0,53,0.00,CLR,,0.00,WeatherDisplay:10.37,2013-05-06 02:30:00,
2013-05-05 22:35:00,48.6,32.2,30.10,NE,45,3.5,0.0,53,0.00,CLR,,0.00,WeatherDisplay:10.37,2013-05-06 02:35:00,
2013-05-05 22:40:00,48.6,32.2,30.10,NNW,338,0.0,0.0,53,0.00,CLR,,0.00,WeatherDisplay:10.37,2013-05-06 02:40:00,
2013-05-05 22:45:00,48.7,32.4,30.10,NE,45,4.6,4.6,53,0.00,CLR,,0.00,WeatherDisplay:10.37,2013-05-06 02:45:00,
2013-05-05 22:50:00,48.7,32.4,30.10,East,90,4.6,4.6,53,0.00,CLR,,0.00,WeatherDisplay:10.37,2013-05-06 02:50:00,
2013-05-05 22:55:00,48.7,32.4,30.10,NW,315,5.8,5.8,53,0.00,CLR,,0.00,WeatherDisplay:10.37,2013-05-06 02:55:00,
2013-05-05 23:00:00,48.7,32.4,30.10,NE,45,3.5,3.5,53,0.00,CLR,,0.00,WeatherDisplay:10.37,2013-05-06 03:00:00,
2013-05-05 23:05:00,48.7,31.9,30.10,NE,45,6.9,6.9,52,0.00,CLR,,0.00,WeatherDisplay:10.37,2013-05-06 03:05:00,
2013-05-05 23:10:00,48.7,31.9,30.09,ENE,68,3.5,3.5,52,0.00,CLR,,0.00,WeatherDisplay:10.37,2013-05-06 03:10:00,
2013-05-05 23:15:00,48.7,31.9,30.09,North,0,1.2,0.0,52,0.00,CLR,,0.00,WeatherDisplay:10.37,2013-05-06 03:15:00,
2013-05-05 23:20:00,48.6,31.7,30.09,North,0,4.6,4.6,52,0.00,CLR,,0.00,WeatherDisplay:10.37,2013-05-06 03:20:00,
2013-05-05 23:25:00,48.6,32.2,30.09,North,0,3.5,3.5,53,0.00,CLR,,0.00,WeatherDisplay:10.37,2013-05-06 03:25:00,
2013-05-05 23:30:00,48.6,32.2,30.09,SE,135,5.8,5.8,53,0.00,CLR,,0.00,WeatherDisplay:10.37,2013-05-06 03:30:00,
2013-05-05 23:35:00,48.6,32.2,30.09,SE,135,3.5,0.0,53,0.00,CLR,,0.00,WeatherDisplay:10.37,2013-05-06 03:35:00,
2013-05-05 23:40:00,48.6,32.2,30.09,South,180,4.6,4.6,53,0.00,CLR,,0.00,WeatherDisplay:10.37,2013-05-06 03:40:00,
2013-05-05 23:45:00,48.6,32.2,30.09,North,0,5.8,5.8,53,0.00,CLR,,0.00,WeatherDisplay:10.37,2013-05-06 03:45:00,
2013-05-05 23:50:00,48.6,32.2,30.09,South,180,2.3,0.0,53,0.00,CLR,,0.00,WeatherDisplay:10.37,2013-05-06 03:50:00,
2013-05-05 23:55:00,48.7,32.8,30.09,NE,45,3.5,3.5,54,0.00,CLR,,0.00,WeatherDisplay:10.37,2013-05-06 03:55:00,